{"data":{"norad_id":49107,"intl_designator":"2021-075AJ","name":"ONEWEB-0329","alt_names":[],"object_type":"PAYLOAD","status":"ACTIVE","operator":null,"country":"UK","launch_date":"2021-08-21","launch_site_code":"TYMSC","launch_vehicle":null,"mission":null,"orbit_class":"UNKNOWN","rcs_meters":null,"size_class":null,"mass_kg":null,"dimensions":null,"purposes":["comms"],"wikipedia_slug":null,"has_3d_model":false,"image_url":null,"decayed_at":null,"tle_current":{"epoch":"2026-09-20T00:37:36.539040Z","epoch_age_seconds":62972,"freshness":"FRESH","line1":"1 49107U 21075AJ  26263.02611735  .00000053  00000+0  10350-3 0  9999","line2":"2 49107  87.9202 347.0358 0001864 106.1047 254.0289 13.17650394246077","mean_motion":13.17650394,"eccentricity":0.0001864,"inclination_deg":87.9202,"raan_deg":347.0358,"arg_perigee_deg":106.1047,"mean_anomaly_deg":254.0289,"bstar":0.0001035,"rev_number":24607,"period_min":109.28543766671,"perigee_km":1192.2965275753,"apogee_km":1195.1193113613,"semimajor_km":7571.8449194683,"source":"CELESTRAK","updated_at":"2026-09-20T09:00:44.659623Z"}}}